Other Surface Observations
Issued by NWS Charleston, SC

Home | Current Version | Previous Version | Text Only | Print | Product List | Glossary On
Versions: 1 2 3 4 5 6 7 8 9 10 11 12 13 14 15 16 17 18 19 20 21 22 23 24 25 26 27 28 29 30 31 32 33 34 35 36 37 38 39 40 41 42 43 44 45 46 47 48 49 50
000
SXUS52 KCHS 062327
OSOCHS

MARINE OBSERVATIONS
NATIONAL WEATHER SERVICE CHARLESTON SC
700 PM EDT MON JUL 06 2015

...DOWNTOWN CHARLESTON AND HARBOR...

CITY           SKY/WX    TMP DP  RH WIND       PRES   REMARKS
WATERFRONT PRK   N/A     82  73  74 S12       30.07F
FORT JOHNSON   NOT AVBL

...LAKE MOULTRIE...

CITY           SKY/WX    TMP DP  RH WIND       PRES   REMARKS
PINOPOLIS      NOT AVBL

...LAKE AND SUPPLEMENTAL COASTAL OBSERVATIONS...

STATION/POSITION TIME  TEMP    WIND        PRES    WAVE   SWELL
                       AIR SEA DIR/SP/G            HT/PER HT/PER/DIR
                 (UTC) (F)     (DEG/KT/KT) (MB)    (FT/S) (FT/S/D)
FORT PULASKI     2300   80 84  150/  7/ 11 1019.7F
SAPELO ISLAND    2300   84     130/  5     1019.0S
UPR LAKE MARION  NOT AVBL
WINYAH BAY       2245   80     190/  7     1018.0S
LAKE MURRAY      2200   87     200/  7/  8 1017.3F
ACE BASIN NERRS  2200   82     100/  2     1019.0


...C-MAN AND BUOY OBSERVATIONS...

STATION/POSITION TIME  TEMP    WIND        PRES    WAVE   SWELL
                       AIR SEA DIR/SP/G            HT/PER HT/PER/DIR
                 (UTC) (F)     (DEG/KT/KT) (MB)    (FT/S) (FT/S/D)
BUOY 41004       2250   80 83  200/ 10/ 12 1019.6R   3/ 9   2/ 9
BUOY 41008       2250   79 80  160/ 12/ 14 1019.6F   2/ 8   2/110/ 8
FOLLY BEACH CMAN 2300   80     190/ 13/ 15 1019.6R
CAPERS NS BUOY   2208   81     200/ 14/ 17 1019.6F
FRIPP NS BUOY    2200   80     170/ 12/ 14 1019.1
5E ST. MARYS GA  2221      78                N/A     2/ 9


STATION/POSITION TIME  TEMP    WIND        PRES    WAVE   SWELL
                       AIR SEA DIR/SP/G            HT/PER HT/PER/DIR
                 (UTC) (F)     (DEG/KT/KT) (MB)    (FT/S) (FT/S/D)
FRYING PAN BUOY  2250   82 80  180/ 10/ 12 1020.2R   3/ 8   2/110/ 8
BUOY 41025       2250   81 82  200/ 17/ 19 1019.8R   3/ 8   2/100/ 8
CAPE LOOKOUT NC  2300   82     200/ 11/ 13 1019.4S
BUOY 41002       2250   81 80  220/ 10/ 12 1022.0R   4/ 8   3/160/ 8
BUOY 41010       2220   82 83  210/  4/  6 1021.1R
ST AUGUSTINE FL  2300   77 76  220/  7/  9 1021.4R

$$



USA.gov is the U.S. government's official web portal to all federal, state and local government web resources and services.